{"data":{"norad_id":58844,"epoch":"2026-05-24T22:35:58.678368Z","epoch_age_seconds":76721,"freshness":"FRESH","line1":"1 58844U 24017U   26144.94165137 -.00000049  00000+0  10467-4 0  9991","line2":"2 58844  53.1601 300.2614 0001123 104.6447 255.4678 15.30195622130449","mean_motion":15.30195622,"eccentricity":0.0001123,"inclination_deg":53.1601,"raan_deg":300.2614,"arg_perigee_deg":104.6447,"mean_anomaly_deg":255.4678,"bstar":1.0467e-5,"rev_number":13044,"period_min":94.105614948623,"perigee_km":474.45850846398,"apogee_km":475.99777427473,"semimajor_km":6853.3651413694,"source":"CELESTRAK","updated_at":"2026-05-25T13:38:18.756370Z"}}